Temp
9 8 8 8 8 8 8 9 8 9 8 8 8 8 8 8 8 8 8 8 8 9 9 8 8 8 8 8 8 8 8 8 8 8 8 9 8 8 8 9 9 9 9
9 9 8 8 8 8 9 9 8 8 8 8 8 8 8 8 8 8 8 8 8 8 8 9 9 9 8 8 8 8 8 8 8 8 8 8 8 8 8 9 9 9 9
9 9 8 9 8 9 9 8 8 8 8 8 8 8 8 8 8 8 8 8 8 8 8 8 9 9 9 8 8 8 8 8 8 8 8 8 9 8 8 8 8 9 9
9 9 9 9 9 9 9 8 8 8 8 8 8 8 8 8 8 8 8 8 8 8 8 8 9 9 9 9 9 8 8 9 9 9 9 8 8 8 8 8 8 8 8
9 9 9 9 9 9 9 8 8 8 8 8 8 8 8 8 8 8 8 8 8 8 8 8 9 9 9 9 9 8 8 9 9 9 9 9 8 8 7 8 8 9 8
10 9 9 9 9 9 9 8 8 8 8 8 8 8 8 8 8 8 8 8 9 9 9 9 9 9 9 9 9 8 8 8 7 8 9 9 9 8 8 8 7 8 8
10 10 9 9 9 9 9 8 8 8 8 9 8 8 8 8 8 8 9 9 9 8 8 9 9 9 9 8 8 8 9 9 8 8 9 9 9 9 8 8 8 8 8
10 9 9 9 9 9 9 9 9 9 9 8 8 8 8 8 8 8 9 9 9 9 8 9 9 9 9 8 8 8 8 8 9 8 8 9 9 9 8 8 8 8 8
9 9 9 9 9 9 9 9 9 9 9 9 8 8 8 8 8 8 8 8 8 8 8 8 9 8 9 9 8 8 8 8 8 7 8 8 9 8 8 8 8 8 8
9 9 9 10 10 10 10 9 9 9 9 9 8 8 8 8 8 8 8 8 8 8 8 8 8 8 9 9 8 7 8 8 9 7 7 8 8 9 8 8 8 8 8
9 9 9 10 10 10 10 10 10 9 9 9 9 9 8 8 8 8 8 8 8 8 8 8 8 7 8 9 8 8 7 8 8 8 8 7 7 8 9 8 8 8 8
10 10 10 10 10 10 10 10 10 9 9 9 9 9 8 8 8 8 8 8 8 8 8 8 8 7 8 8 8 9 6 8 8 7 8 8 7 8 8 8 8 8 8
10 10 10 10 10 10 10 10 10 9 9 9 9 9 8 8 8 8 8 8 8 8 8 8 8 8 8 8 8 9 8 9 8 8 8 7 8 8 8 8 8 8 8
11 11 11 11 10 10 10 10 10 9 9 9 9 9 9 8 8 8 8 8 8 9 8 8 8 9 9 8 8 8 8 9 8 9 8 8 8 8 8 8 8 8 8
11 11 11 11 11 10 10 10 10 10 9 9 9 9 9 9 9 8 8 8 8 9 9 9 8 9 9 8 8 9 9 9 9 9 9 8 8 8 8 8 8 8 8
11 11 11 11 11 10 10 10 10 10 10 10 9 9 9 9 9 9 8 8 8 8 8 8 8 9 9 9 7 8 9 9 8 9 9 8 8 8 8 8 8 8 8
12 11 11 11 11 11 11 10 10 10 10 10 10 10 9 9 10 9 9 9 8 9 8 8 9 8 7 8 9 8 8 9 9 8 9 9 8 8 8 8 8 7 7
12 12 11 11 11 11 11 11 10 10 11 10 10 10 9 9 9 9 9 9 9 9 9 9 9 9 8 8 8 8 9 7 7 8 8 8 8 8 8 8 8 7 7
12 12 12 11 11 11 11 11 10 11 11 11 10 10 9 9 9 9 9 10 9 9 9 10 10 10 10 9 9 8 8 7 6 6 7 7 8 8 8 8 8 8 7
11 12 12 12 12 11 11 11 11 11 11 11 11 10 10 9 9 9 9 9 9 10 10 10 10 11 10 10 9 9 8 6 6 5 6 6 7 8 8 7 8 8 7
12 12 12 12 12 12 12 12 12 12 11 11 11 10 10 9 9 9 10 10 10 10 10 10 10 10 10 10 9 8 8 6 7 6 6 6 6 7 7 7 8 8 8
13 13 13 13 12 12 12 12 12 11 11 11 10 10 10 9 10 10 10 10 11 10 10 10 10 9 9 10 9 9 8 7 6 7 6 6 6 7 8 7 7 7 7
14 14 14 13 13 12 12 11 12 12 12 12 11 11 10 9 10 10 10 11 10 11 10 10 10 9 9 9 9 9 9 8 7 7 6 5 6 6 6 7 7 7 7
14 14 14 14 13 13 12 12 12 12 12 11 11 10 9 10 12 11 11 11 11 10 10 10 9 9 8 8 9 9 9 9 8 8 7 7 7 7 6 6 6 6 6
15 15 14 14 13 13 13 13 13 13 12 11 11 11 11 11 12 11 11 11 11 10 10 10 10 10 9 9 9 9 9 9 8 8 8 7 6 6 6 6 5 5 5
14 14 14 14 14 13 13 13 13 13 12 12 12 12 11 12 12 12 12 11 11 10 10 10 10 10 9 9 9 9 8 8 8 8 8 7 6 7 7 7 5 5 5
Height
3158 3161 3164 3168 3171 3175 3178 3181 3183 3185 3188 3189 3191 3192 3193 3193 3194 3194 3195 3194 3194 3194 3193 3193 3192 3193 3192 3192 3192 3191 3190 3188 3188 3187 3186 3186 3186 3187 3188 3189 3191 3193 3195
3160 3163 3167 3171 3174 3178 3181 3184 3186 3188 3190 3192 3193 3195 3195 3196 3196 3196 3196 3196 3195 3195 3195 3194 3194 3194 3194 3193 3193 3192 3192 3190 3188 3188 3188 3187 3187 3187 3189 3190 3192 3194 3196
3164 3166 3169 3173 3176 3180 3184 3186 3188 3191 3193 3195 3196 3197 3197 3198 3198 3198 3198 3197 3196 3196 3196 3196 3196 3195 3195 3195 3195 3194 3194 3192 3192 3190 3191 3189 3190 3190 3190 3191 3192 3195 3196
3167 3170 3173 3176 3179 3183 3186 3188 3191 3194 3196 3198 3198 3198 3198 3199 3200 3200 3199 3198 3198 3198 3198 3198 3197 3197 3197 3196 3197 3196 3196 3195 3194 3194 3193 3192 3192 3193 3193 3193 3194 3195 3197
3170 3173 3175 3179 3182 3186 3189 3191 3194 3196 3198 3199 3199 3199 3200 3201 3200 3200 3200 3200 3199 3199 3200 3200 3199 3199 3199 3198 3197 3197 3197 3196 3195 3196 3196 3194 3194 3194 3195 3196 3196 3197 3198
3172 3176 3179 3181 3184 3188 3191 3194 3196 3198 3199 3200 3201 3201 3202 3202 3201 3201 3201 3201 3202 3202 3202 3201 3200 3200 3200 3200 3199 3199 3198 3196 3196 3196 3199 3197 3196 3196 3196 3197 3198 3199 3200
3175 3178 3181 3183 3187 3190 3193 3196 3197 3199 3201 3202 3202 3203 3203 3203 3203 3203 3203 3203 3203 3204 3203 3203 3202 3202 3203 3201 3200 3200 3200 3200 3199 3196 3199 3199 3198 3198 3198 3199 3200 3200 3201
3178 3180 3183 3186 3189 3192 3195 3197 3199 3201 3203 3204 3204 3204 3205 3204 3205 3205 3205 3205 3206 3205 3205 3204 3204 3203 3203 3202 3201 3201 3200 3200 3199 3197 3198 3200 3199 3199 3199 3200 3200 3201 3201
3180 3183 3186 3188 3190 3193 3196 3198 3200 3202 3204 3205 3205 3206 3206 3207 3207 3207 3207 3207 3207 3207 3206 3205 3205 3205 3204 3203 3202 3202 3201 3200 3198 3196 3198 3199 3199 3201 3201 3201 3202 3202 3203
3182 3185 3188 3190 3192 3194 3197 3199 3202 3203 3205 3206 3206 3207 3208 3208 3208 3209 3209 3208 3208 3208 3207 3207 3206 3205 3203 3203 3202 3201 3201 3200 3199 3199 3199 3199 3199 3202 3202 3202 3203 3203 3204
3181 3185 3188 3191 3193 3196 3198 3200 3203 3204 3206 3207 3208 3208 3210 3210 3209 3210 3209 3209 3209 3208 3208 3207 3206 3206 3205 3202 3202 3201 3199 3200 3200 3199 3200 3200 3200 3202 3202 3203 3204 3205 3206
3182 3185 3188 3191 3194 3197 3199 3202 3204 3205 3207 3208 3209 3209 3210 3210 3210 3210 3209 3209 3209 3209 3209 3208 3207 3205 3205 3203 3202 3201 3199 3199 3199 3199 3199 3200 3201 3201 3203 3203 3203 3205 3206
3183 3186 3188 3191 3194 3198 3200 3202 3204 3205 3207 3208 3209 3209 3210 3211 3211 3211 3210 3210 3210 3210 3210 3209 3208 3207 3205 3203 3201 3200 3199 3198 3198 3199 3199 3200 3203 3204 3204 3205 3203 3204 3206
3182 3186 3189 3191 3194 3198 3200 3202 3204 3206 3207 3208 3208 3209 3210 3211 3211 3211 3211 3211 3211 3211 3211 3209 3209 3207 3207 3204 3201 3200 3199 3198 3198 3198 3198 3200 3201 3203 3205 3205 3205 3206 3207
3182 3185 3189 3192 3194 3197 3200 3202 3203 3205 3206 3207 3208 3209 3210 3211 3211 3211 3212 3212 3211 3211 3210 3209 3208 3207 3207 3205 3202 3201 3199 3198 3197 3198 3198 3200 3201 3203 3203 3204 3206 3207 3207
3182 3186 3188 3191 3194 3196 3199 3202 3203 3204 3205 3206 3207 3208 3210 3210 3211 3211 3212 3212 3211 3210 3210 3209 3208 3206 3204 3203 3201 3200 3200 3198 3197 3197 3198 3199 3201 3202 3203 3204 3204 3206 3207
3182 3185 3188 3191 3194 3196 3198 3200 3202 3204 3204 3205 3206 3207 3209 3210 3210 3210 3211 3211 3211 3211 3210 3208 3206 3204 3202 3202 3200 3200 3199 3198 3197 3197 3198 3199 3199 3201 3203 3204 3204 3205 3206
3180 3183 3187 3190 3192 3195 3197 3198 3200 3203 3204 3204 3206 3207 3208 3209 3209 3209 3210 3210 3210 3210 3209 3207 3205 3203 3202 3201 3199 3198 3198 3196 3197 3197 3197 3198 3199 3200 3201 3202 3203 3204 3204
3180 3183 3185 3188 3191 3193 3195 3197 3199 3202 3203 3204 3205 3206 3207 3208 3208 3209 3210 3210 3209 3209 3208 3207 3206 3205 3203 3201 3200 3198 3197 3197 3198 3198 3197 3198 3198 3199 3200 3201 3201 3202 3204
3179 3182 3184 3186 3189 3191 3193 3195 3197 3199 3201 3203 3204 3205 3205 3207 3208 3209 3210 3210 3210 3209 3208 3208 3207 3205 3202 3200 3198 3197 3197 3197 3196 3197 3198 3198 3198 3198 3198 3198 3200 3201 3202
3176 3178 3182 3184 3186 3188 3191 3193 3195 3197 3198 3200 3201 3202 3203 3205 3207 3207 3209 3209 3209 3210 3209 3209 3207 3205 3202 3200 3198 3197 3197 3196 3197 3197 3197 3197 3197 3197 3197 3197 3198 3199 3199
3175 3177 3179 3182 3184 3186 3189 3191 3193 3195 3195 3197 3199 3200 3202 3204 3205 3206 3207 3208 3209 3210 3209 3208 3208 3206 3203 3200 3199 3198 3198 3199 3197 3197 3198 3197 3198 3198 3197 3197 3197 3197 3198
3172 3175 3178 3179 3182 3184 3186 3188 3190 3192 3193 3195 3197 3199 3200 3201 3202 3203 3205 3207 3209 3209 3209 3208 3208 3206 3203 3200 3200 3200 3198 3198 3198 3197 3197 3197 3197 3198 3197 3197 3196 3196 3196
3168 3171 3174 3176 3179 3181 3183 3185 3187 3189 3191 3194 3195 3196 3197 3198 3199 3201 3204 3206 3209 3209 3208 3209 3208 3206 3202 3201 3202 3201 3201 3200 3199 3199 3198 3198 3197 3198 3197 3197 3197 3197 3196
3165 3167 3170 3173 3175 3177 3179 3182 3184 3186 3189 3191 3192 3193 3195 3197 3198 3199 3202 3205 3207 3208 3208 3208 3209 3207 3205 3204 3203 3203 3202 3201 3200 3199 3198 3198 3197 3197 3197 3197 3196 3196 3195
3158 3162 3165 3167 3170 3173 3176 3179 3182 3183 3185 3187 3189 3190 3193 3194 3197 3199 3201 3203 3204 3205 3207 3208 3208 3207 3206 3204 3204 3203 3202 3201 3200 3198 3197 3197 3197 3197 3196 3195 3195 3195 3194
Wind_Speed
25 29 33 30 31 28 27 25 26 24 22 20 18 14 13 14 15 13 12 12 12 12 13 13 11 10 11 10 10 12 14 10 11 14 11 9 9 9 9 10 11 9 8
28 33 33 33 29 29 27 26 25 23 21 18 15 13 14 14 13 12 11 11 12 13 14 12 11 13 14 12 10 11 14 12 11 12 10 11 7 10 11 11 9 7 7
29 31 32 31 31 29 27 26 24 22 19 16 13 13 15 14 12 11 11 12 13 13 14 13 12 13 12 11 10 11 13 17 11 12 8 11 12 12 13 12 10 10 9
31 29 33 32 30 28 26 25 23 20 17 14 13 14 15 13 12 11 12 12 13 15 14 13 13 14 13 11 12 12 12 15 13 9 7 8 12 12 11 12 11 12 11
32 33 32 31 28 26 25 23 21 18 15 14 13 13 13 12 11 11 12 12 13 14 13 12 14 14 13 13 13 11 11 11 15 13 4 7 10 12 13 11 12 11 11
32 32 30 29 26 24 23 22 20 17 15 14 13 12 10 10 10 11 12 12 12 11 10 9 11 12 12 13 11 12 10 7 10 10 6 4 9 12 11 10 9 8 7
31 30 28 26 24 22 21 20 19 17 15 13 12 10 8 9 9 11 11 11 10 10 9 9 10 12 13 12 12 11 10 8 7 2 2 3 7 10 8 8 6 5 6
26 27 25 24 23 21 20 19 18 17 14 12 11 9 8 8 9 8 8 8 8 8 7 7 7 8 9 9 9 9 8 8 5 9 7 4 6 8 8 6 6 5 5
25 24 23 22 22 21 20 18 17 16 13 11 9 7 7 8 8 7 7 8 8 8 7 6 7 7 7 8 9 9 7 7 10 14 8 7 7 5 7 7 7 6 5
23 22 21 21 20 20 19 18 17 15 13 10 8 6 6 7 7 6 6 6 5 5 5 5 5 6 6 7 7 8 5 7 3 6 8 8 8 5 7 8 6 6 5
24 23 22 21 20 19 19 17 16 14 11 8 7 5 6 7 6 5 4 3 2 1 2 3 4 5 7 9 8 5 5 4 4 2 3 4 7 6 7 8 7 6 5
24 24 23 22 20 19 18 17 15 13 10 7 5 4 6 4 3 4 4 4 4 3 1 1 3 7 8 9 8 6 4 3 3 3 5 5 4 6 7 8 8 7 6
22 23 23 22 20 18 17 16 15 12 10 8 6 5 4 1 4 3 1 2 5 5 4 4 6 7 7 7 8 8 5 4 4 4 7 8 7 6 5 7 7 7 6
21 22 22 21 19 18 18 16 14 13 10 8 8 5 4 4 3 0 1 3 5 5 5 6 7 8 6 6 12 10 6 4 4 4 6 10 10 8 8 6 6 6 6
21 22 21 20 19 19 18 17 15 13 11 11 9 6 3 4 2 2 0 3 5 4 4 4 9 8 6 7 10 12 9 5 5 6 6 8 11 10 10 10 7 6 6
19 21 21 20 19 18 16 14 14 13 12 10 10 8 6 5 4 2 0 3 4 5 10 5 11 11 9 9 11 12 8 3 4 2 5 8 8 10 9 10 10 9 7
18 20 18 18 19 17 15 15 14 12 12 9 7 8 4 3 4 2 2 3 5 6 6 9 12 10 10 10 11 11 7 2 2 4 6 8 8 7 9 9 9 10 11
21 20 19 19 17 16 15 14 13 11 8 8 7 5 5 4 4 2 5 6 8 9 11 11 12 12 11 11 11 11 7 2 3 5 3 5 7 7 8 10 11 10 11
21 20 20 19 18 17 15 13 12 12 8 6 6 5 6 6 4 4 6 6 8 9 9 8 6 8 8 9 9 7 4 4 2 4 3 2 5 6 9 10 10 11 11
20 19 18 17 17 16 15 14 15 13 10 8 6 6 7 10 7 7 6 5 6 5 6 9 11 12 13 12 7 4 2 3 1 4 5 3 0 3 3 7 8 11 11
21 21 20 18 16 16 15 14 13 11 8 5 5 5 7 10 11 9 6 4 1 7 9 12 13 14 14 14 11 6 2 1 1 2 2 5 4 2 3 4 5 6 9
22 22 21 19 18 16 15 13 12 11 10 10 10 9 12 13 13 12 7 1 8 8 12 12 16 17 17 12 9 7 6 3 5 3 6 6 6 4 3 4 4 5 6
24 24 21 18 18 17 16 16 14 15 13 11 11 9 9 14 13 7 6 10 9 10 11 11 12 16 19 7 6 7 8 9 8 8 8 4 7 5 5 4 3 3 5
26 25 23 22 22 20 19 18 17 16 14 10 10 11 10 11 11 10 12 12 11 10 9 9 8 17 19 13 10 11 10 9 8 8 9 9 10 9 6 7 7 8 7
21 24 24 23 23 23 21 20 19 18 16 16 16 13 11 9 12 15 16 15 13 10 8 5 7 13 20 18 14 12 11 10 10 10 9 9 10 12 10 8 8 6 3
12 17 26 26 24 24 23 22 21 19 18 19 18 15 12 10 15 18 19 17 14 11 8 5 6 11 14 19 18 16 12 11 11 9 9 11 12 13 12 13 13 9 8
Wind_Direction
144 146 143 138 132 135 136 134 130 128 124 119 111 106 103 106 108 100 93 81 77 75 73 76 76 76 78 77 73 55 55 62 54 40 58 86 107 122 141 166 183 192 197
142 142 140 136 136 137 138 136 133 131 125 119 116 106 101 106 105 100 90 79 72 71 72 72 71 72 72 73 66 52 50 42 34 27 63 82 95 110 121 130 145 155 174
150 140 141 142 138 139 140 139 136 133 128 127 116 103 103 103 101 97 85 78 75 73 72 73 68 69 72 75 64 56 51 40 37 47 59 91 95 103 111 116 129 142 150
147 141 144 142 143 144 145 141 140 136 134 126 114 110 103 99 94 88 85 80 77 74 76 74 74 73 72 69 66 60 64 42 43 42 67 92 106 109 110 121 130 133 132
141 143 144 145 147 149 148 144 143 142 134 128 119 108 99 96 94 93 91 91 87 85 82 80 76 76 74 70 74 77 76 58 46 33 45 100 113 112 118 118 115 117 121
141 143 144 147 148 152 149 148 147 140 138 126 115 105 99 94 99 102 98 94 90 88 84 82 79 77 74 66 69 77 68 50 81 52 20 85 109 115 112 111 111 105 108
144 145 147 147 150 153 151 151 147 144 136 125 115 105 100 98 103 101 100 94 92 93 91 77 73 69 65 65 68 62 59 45 57 89 58 77 118 116 114 102 95 99 110
148 148 150 149 152 153 153 152 149 141 138 130 119 113 100 99 93 88 87 80 83 84 80 67 58 54 61 47 44 46 44 46 65 96 123 100 105 132 129 114 99 91 110
154 154 156 155 154 155 155 153 148 144 143 135 127 116 105 95 90 77 67 69 68 79 76 58 42 31 23 32 15 19 32 40 46 135 115 114 105 126 132 126 121 119 134
161 161 163 160 157 156 153 154 151 151 148 145 132 123 101 95 84 72 69 71 74 69 57 40 36 26 9 13 15 21 47 25 13 96 95 112 109 132 140 134 136 128 136
167 165 166 164 160 157 156 156 157 155 152 152 135 129 86 98 97 60 93 96 67 79 51 16 17 6 348 338 345 350 318 59 110 130 137 126 123 143 140 142 141 127 135
170 167 166 166 164 160 160 161 161 161 162 160 147 139 129 125 126 87 82 53 75 93 26 34 26 336 328 326 330 321 359 52 96 149 193 188 149 152 152 141 141 145 148
172 172 167 168 169 166 167 169 170 169 174 173 178 179 152 137 133 89 99 102 34 26 333 320 334 348 329 340 337 358 358 20 49 160 186 188 175 170 143 142 138 144 153
179 175 172 172 172 174 178 178 181 184 188 189 201 196 176 171 152 238 187 341 354 343 325 322 338 351 7 12 13 4 6 56 126 154 171 172 179 175 171 155 144 141 137
182 181 177 178 178 186 187 190 191 194 200 208 216 204 192 199 188 153 63 332 15 341 330 342 357 336 358 18 355 15 10 54 74 122 150 165 183 183 184 176 164 164 157
187 187 182 180 187 194 197 201 206 209 214 216 234 218 208 208 217 144 82 336 353 344 2 319 322 327 342 349 345 357 3 27 97 110 150 163 182 188 200 189 189 192 183
187 189 186 188 196 200 202 210 219 230 226 229 234 216 206 221 253 273 339 345 328 327 316 321 318 320 330 323 327 343 338 359 106 148 161 174 182 190 200 209 202 203 208
185 182 185 193 199 201 205 207 219 236 219 217 205 200 208 230 258 321 314 312 315 319 327 302 316 310 310 303 320 326 321 49 60 137 192 175 189 206 202 210 214 212 215
186 190 194 194 200 203 205 202 211 224 211 209 218 213 198 222 243 262 298 306 318 328 325 341 348 1 359 337 322 298 308 65 133 62 78 158 162 188 212 213 212 217 222
191 196 197 193 198 203 204 207 216 224 219 215 219 210 217 227 240 259 272 296 329 347 55 51 44 40 27 9 357 323 339 97 86 101 81 45 137 193 197 215 222 232 222
201 199 200 199 199 204 208 217 229 246 238 229 245 255 222 221 229 258 261 304 41 105 78 63 52 45 34 22 12 6 346 328 106 140 80 72 35 277 270 253 240 214 223
205 201 203 201 205 215 221 226 234 241 242 236 232 235 229 230 240 250 246 162 134 104 87 76 66 48 33 14 20 14 359 41 324 279 342 10 23 354 297 261 256 240 219
208 208 205 204 212 219 228 232 235 238 236 239 238 241 257 247 230 209 167 146 130 108 98 93 64 35 14 0 41 28 12 2 355 340 338 331 351 338 335 325 318 286 258
207 206 210 217 221 224 229 234 241 248 250 252 245 237 251 239 202 167 160 145 136 131 115 95 58 24 37 54 49 34 21 9 353 348 342 325 328 348 332 333 324 310 303
229 213 214 216 221 225 227 230 232 237 241 239 238 238 243 234 181 166 157 151 156 142 134 112 45 30 54 56 55 48 36 23 6 348 337 331 321 321 318 312 317 298 272
241 236 227 219 221 226 228 233 234 234 234 238 237 238 238 213 186 169 162 162 162 159 149 124 40 35 38 41 38 34 32 27 12 354 332 312 309 307 310 317 319 312 320